Location: Davayat
(45.9471°N, 3.1105°E)
Time: 04:50:35
(UTC+00:00)

FENGYUN 1C DEB - Visible Passes

Search period start: 15 June 2021 00:00
Search period end: 25 June 2021 00:00
Orbit: 578 x 868 km, 99.0° (Epoch: 14 June)

Date Brightness Start Highest point End Pass type
(mag) Time Alt. Az. Time Alt. Az. Time Alt. Az.
15 Jun ? 20:31:28 10° W 20:32:11 10° W 20:32:53 10° W visible
17 Jun ? 20:31:39 10° W 20:32:20 10° W 20:33:02 10° W visible
19 Jun ? 20:31:46 10° W 20:32:29 10° W 20:33:12 10° W visible
21 Jun ? 20:31:51 10° W 20:32:38 10° W 20:33:25 10° W visible
23 Jun ? 20:31:54 10° WSW 20:32:47 11° W 20:33:39 10° WNW visible
